Location: Crescent
(42.8242°N, 73.7329°W)
Time: 12:23:15
(UTC+00:00)

A-11 Canister half - Visible Passes

Search period start: 09 November 2024 00:00
Search period end: 19 November 2024 00:00
Orbit: 1525 x 1683 km, 47.3° (Epoch: 08 November)

Date Brightness Start Highest point End Pass type
(mag) Time Alt. Az. Time Alt. Az. Time Alt. Az.
09 Nov 9.9 07:14:33 40° ENE 07:14:33 40° ENE 07:20:03 10° E visible
09 Nov 8.8 09:12:52 47° WNW 09:16:05 80° SSW 09:25:23 10° SE visible
10 Nov 10.3 06:54:13 29° E 06:54:13 29° E 06:58:15 10° E visible
10 Nov 8.8 08:52:32 63° W 08:54:20 82° SSW 09:03:38 10° ESE visible
10 Nov 9.8 10:50:51 11° WNW 10:58:23 32° SW 11:06:12 10° S visible
11 Nov 10.7 06:33:56 21° E 06:33:56 21° E 06:36:26 10° E visible
11 Nov 8.7 08:32:14 83° WSW 08:32:33 84° SSW 08:41:53 10° ESE visible
11 Nov 9.7 10:30:33 17° W 10:36:41 34° SW 10:44:39 10° SSE visible
12 Nov 11.0 06:13:41 14° E 06:13:41 14° E 06:14:38 10° E visible
12 Nov 9.0 08:12:00 72° SE 08:12:00 72° SE 08:20:07 10° ESE visible
12 Nov 9.6 10:10:19 23° W 10:14:58 35° SW 10:23:06 10° SSE visible
13 Nov 10.8 01:24:12 10° SSW 01:25:44 15° SSW 01:25:44 15° SSW visible
13 Nov 9.4 07:51:49 52° ESE 07:51:49 52° ESE 07:58:21 10° ESE visible
13 Nov 9.5 09:50:08 30° W 09:53:16 37° SW 10:01:31 10° SSE visible
14 Nov 10.5 01:02:32 10° SSW 01:05:45 21° S 01:05:45 21° S visible
14 Nov 9.9 07:31:40 37° ESE 07:31:40 37° ESE 07:36:35 10° ESE visible
14 Nov 9.4 09:30:00 37° WSW 09:31:33 39° SW 09:39:56 10° SSE visible
15 Nov 10.1 00:40:55 10° SSW 00:45:44 27° S 00:45:44 27° S visible
15 Nov 10.4 07:11:34 25° ESE 07:11:34 25° ESE 07:14:49 10° ESE visible
15 Nov 9.3 09:09:54 41° SW 09:09:54 41° SW 09:18:19 10° SSE visible
16 Nov 9.9 00:19:18 10° SSW 00:25:43 32° SSE 00:25:43 32° SSE visible
16 Nov 10.9 02:22:18 10° WSW 02:24:02 17° WSW 02:24:02 17° WSW visible
16 Nov 10.8 06:51:30 16° ESE 06:51:30 16° ESE 06:53:02 10° ESE visible
16 Nov 9.5 08:49:50 40° SSW 08:49:50 40° SSW 08:56:42 10° SSE visible
16 Nov 9.7 23:57:42 10° SSW 00:05:38 33° SE 00:05:38 33° SE visible
17 Nov 10.5 02:00:30 10° WSW 02:03:57 25° WSW 02:03:57 25° WSW visible
17 Nov 9.8 08:29:48 34° S 08:29:48 34° S 08:35:04 10° SSE visible
17 Nov 10.5 10:28:09 10° WSW 10:29:24 11° WSW 10:31:16 10° SW visible
17 Nov 9.7 23:36:06 10° S 23:44:32 32° SE 23:45:30 31° ESE visible
18 Nov 10.0 01:38:42 10° SW 01:43:50 36° SW 01:43:50 36° SW visible
18 Nov 10.2 08:09:48 26° SSE 08:09:48 26° SSE 08:13:26 10° SSE visible
18 Nov 10.5 10:08:08 12° SW 10:08:08 12° SW 10:10:45 10° SW visible
18 Nov 9.8 23:14:32 10° S 23:22:48 30° SE 23:25:20 27° ESE visible
